Location: Harwich
(41.6860°N, 70.0760°W)
Time: 02:19:00
(UTC-04:00)

X-37B - Visible Passes

Search period start: 04 October 2022 00:00
Search period end: 14 October 2022 00:00
Orbit: 329 x 342 km, 45.0° (Epoch: 29 September)

Date Brightness Start Highest point End Pass type
(mag) Time Alt. Az. Time Alt. Az. Time Alt. Az.
04 Oct 0.4 05:03:15 76° ENE 05:03:15 76° ENE 05:06:01 10° ESE visible
05 Oct 0.7 05:23:08 42° SW 05:23:32 46° SSW 05:26:20 10° SE visible
06 Oct 2.0 05:43:09 18° SW 05:43:48 19° SW 05:45:58 10° SSE visible
13 Oct 3.1 19:41:26 10° SSW 19:41:42 12° SSW 19:41:42 12° SSW visible
